Location: Newark
(41.1192°N, 81.5292°W)
Time: 16:21:03
(UTC+00:00)

Envisat - Visible Passes

Search period start: 21 November 2019 00:00
Search period end: 01 December 2019 00:00
Orbit: 764 x 766 km, 98.1° (Epoch: 21 November)

Date Brightness Start Highest point End Pass type
(mag) Time Alt. Az. Time Alt. Az. Time Alt. Az.
21 Nov 6.2 01:02:59 10° WSW 01:04:35 11° W 01:06:12 10° WNW visible
21 Nov 5.4 11:29:24 10° NE 11:33:45 28° E 11:38:03 10° SSE visible
21 Nov 3.5 22:43:46 10° SE 22:48:22 36° ENE 22:53:00 10° N visible
22 Nov 5.1 00:23:14 10° SSW 00:27:26 26° W 00:31:40 10° NW visible
22 Nov 6.3 10:54:36 10° ENE 10:56:35 12° E 10:58:35 10° ESE visible
22 Nov 3.6 23:45:30 10° S 23:50:29 58° W 23:55:31 10° NNW visible
23 Nov 2.9 23:08:44 10° SSE 23:13:44 63° ENE 23:18:46 10° N visible
24 Nov 5.9 00:50:22 10° SW 00:53:11 15° W 00:56:01 10° NW visible
24 Nov 5.7 11:18:28 10° NE 11:22:22 22° E 11:26:16 10° SE visible
24 Nov 3.8 22:32:50 10° SE 22:37:11 29° ENE 22:41:31 10° N visible
25 Nov 4.7 00:11:33 10° SSW 00:16:05 33° W 00:20:40 10° NNW visible
25 Nov 3.2 23:34:08 10° S 23:39:12 75° WSW 23:44:18 10° NNW visible
26 Nov 4.7 11:43:19 10° NNE 11:48:03 38° E 11:52:45 10° SSE visible
26 Nov 3.1 22:57:37 10° SE 23:02:30 50° ENE 23:07:24 10° N visible
27 Nov 5.6 00:38:14 10° SW 00:41:48 19° W 00:45:21 10° NW visible
27 Nov 6.0 11:07:40 10° NE 11:11:00 17° E 11:14:18 10° SE visible
27 Nov 4.2 23:59:58 10° SSW 00:04:45 42° W 00:09:34 10° NNW visible
28 Nov 2.9 23:22:51 10° SSE 23:27:55 87° ENE 23:33:02 10° NNW visible
29 Nov 6.3 01:07:03 10° W 01:07:36 10° W 01:08:08 10° W visible
29 Nov 5.2 11:32:15 10° NE 11:36:43 30° E 11:41:08 10° SSE visible
29 Nov 3.4 22:46:35 10° SE 22:51:17 40° ENE 22:56:00 10° N visible
30 Nov 5.2 00:26:22 10° SSW 00:30:25 24° W 00:34:29 10° NW visible
30 Nov 6.1 10:57:08 10° ENE 10:59:36 13° E 11:02:04 10° ESE visible
30 Nov 3.8 23:48:30 10° S 23:53:26 53° W 23:58:25 10° NNW visible
